TimePST,TemperatureF,Dew PointF,Humidity,Sea Level PressureIn,VisibilityMPH,Wind Direction,Wind SpeedMPH,Gust SpeedMPH,PrecipitationIn,Events,Conditions,WindDirDegrees,DateUTC
12:53 AM,59.0,35.1,41,29.84,10.0,Calm,Calm,-,N/A,,Clear,0,2012-11-08 08:53:00
1:53 AM,55.0,35.1,47,29.83,10.0,Calm,Calm,-,N/A,,Clear,0,2012-11-08 09:53:00
2:53 AM,59.0,33.1,38,29.81,10.0,Calm,Calm,-,N/A,,Clear,0,2012-11-08 10:53:00
3:53 AM,61.0,30.0,31,29.80,10.0,SSE,6.9,-,N/A,,Clear,150,2012-11-08 11:53:00
4:53 AM,61.0,28.9,30,29.80,10.0,ESE,6.9,-,N/A,,Clear,120,2012-11-08 12:53:00
5:53 AM,61.0,28.9,30,29.80,10.0,South,9.2,-,N/A,,Clear,180,2012-11-08 13:53:00
6:53 AM,66.9,28.0,23,29.80,10.0,South,8.1,-,N/A,,Clear,180,2012-11-08 14:53:00
7:53 AM,69.1,28.9,22,29.81,10.0,South,15.0,-,N/A,,Clear,170,2012-11-08 15:53:00
8:53 AM,70.0,30.0,23,29.83,10.0,SSW,13.8,-,N/A,,Clear,200,2012-11-08 16:53:00
9:53 AM,71.1,28.0,20,29.81,10.0,South,10.4,-,N/A,,Clear,180,2012-11-08 17:53:00
10:53 AM,73.0,28.0,19,29.79,10.0,SSE,9.2,-,N/A,,Clear,160,2012-11-08 18:53:00
11:53 AM,75.9,27.0,16,29.75,10.0,SW,16.1,24.2,N/A,,Clear,220,2012-11-08 19:53:00
12:53 PM,75.9,33.1,21,29.73,10.0,WSW,18.4,25.3,N/A,,Clear,240,2012-11-08 20:53:00
1:53 PM,75.9,39.0,26,29.71,10.0,SSW,18.4,27.6,N/A,,Clear,210,2012-11-08 21:53:00
2:53 PM,75.0,39.9,28,29.69,10.0,SW,17.3,25.3,N/A,,Clear,230,2012-11-08 22:53:00
3:53 PM,73.0,41.0,31,29.68,10.0,SSW,16.1,27.6,N/A,,Partly Cloudy,210,2012-11-08 23:53:00
4:53 PM,71.1,41.0,34,29.67,10.0,SSW,18.4,23.0,N/A,,Mostly Cloudy,200,2012-11-09 00:53:00
5:53 PM,69.1,45.0,42,29.70,10.0,SW,17.3,25.3,N/A,,Overcast,230,2012-11-09 01:53:00
6:53 PM,68.0,45.0,43,29.69,10.0,West,12.7,19.6,N/A,,Scattered Clouds,270,2012-11-09 02:53:00
7:53 PM,68.0,43.0,40,29.68,10.0,SSW,10.4,16.1,N/A,,Mostly Cloudy,210,2012-11-09 03:53:00
8:53 PM,66.0,48.0,52,29.68,10.0,SW,15.0,28.8,0.00,,Partly Cloudy,220,2012-11-09 04:53:00
9:53 PM,64.9,46.9,52,29.68,10.0,SW,19.6,28.8,N/A,,Clear,220,2012-11-09 05:53:00
10:53 PM,64.0,46.0,52,29.68,10.0,SSW,21.9,28.8,N/A,,Clear,210,2012-11-09 06:53:00
11:53 PM,63.0,46.0,54,29.67,10.0,SSW,12.7,21.9,N/A,,Clear,200,2012-11-09 07:53:00